Del Rio, TX

10:18 AM CST on January 18, 2018 (GMT -0600)
Del Rio International

Weather History for KDRT - January, 2014

Change the Weather History Date:

Saturday, January 11, 2014

  Actual Average Record
Temperature  
Mean Temperature 58 °F 52 °F  
Max Temperature 78 °F 63 °F 87 °F (1907)
Min Temperature 38 °F 40 °F 12 °F (1918)
Degree Days  
Heating Degree Days 7 13  
Month to date heating degree days 194 152  
Since 1 July heating degree days 882 743  
Cooling Degree Days 0 0  
Month to date cooling degree days 0 0  
Year to date cooling degree days 0 0  
Growing Degree Days 8 (Base 50)    
Moisture  
Dew Point 31 °F    
Average Humidity 54    
Maximum Humidity 96    
Minimum Humidity 12    
Precipitation  
Precipitation 0.00 in 0.02 in 0.66 in (1920)
Month to date precipitation 0.00 0.25  
Year to date precipitation 0.00 0.25  
Sea Level Pressure  
Sea Level Pressure 30.06 in    
Wind  
Wind Speed 5 mph (NW)    
Max Wind Speed 14 mph    
Max Gust Speed 19 mph    
Visibility 9 miles    
Events      
T = Trace of Precipitation, MM = Missing Value Source: NWS Daily Summary

Daily Weather History Graph

Daily Weather History Graph

Search for Another Location

Airport or City:

Trip Planner

Search our weather history database for the weather conditions in past years. The results will help you decide how hot, cold, wet, or windy it might be!

Date:

Astronomy

Jan. 11, 2014 Rise Set
Actual Time 7:39 AM CST 6:04 PM CST
Civil Twilight 7:13 AM CST 6:30 PM CST
Nautical Twilight 6:44 AM CST 6:59 PM CST
Astronomical Twilight 6:15 AM CST 7:28 PM CST
Moon 2:46 PM CST (1/11) 3:49 AM CST (1/11)
Length of Visible Light 11h 16m
Length of Day
10h 24m
Waxing Gibbous, 83% of the Moon is Illuminated
Jan 11
Waxing Gibbous
Jan 15
Full
Jan 23
Last Quarter
Jan 30
New
Feb 6
First Quarter

Hourly Weather History & Observations

Time (CST) Temp. Windchill Dew Point Humidity Pressure Visibility Wind Dir Wind Speed Gust Speed Precip Events Conditions
12:53 AM 46.9 °F - 44.1 °F 90% 29.91 in 8.0 mi North 8.1 mph - N/A   Clear
1:53 AM 43.0 °F - 41.0 °F 93% 29.91 in 6.0 mi Calm Calm - N/A   Clear
2:53 AM 44.1 °F 40.8 °F 42.1 °F 93% 29.94 in 5.0 mi NNW 5.8 mph - N/A   Clear
3:53 AM 42.1 °F - 41.0 °F 96% 29.96 in 5.0 mi Calm Calm - N/A   Clear
4:53 AM 43.0 °F 37.7 °F 41.0 °F 93% 29.99 in 6.0 mi NNW 9.2 mph - N/A   Clear
5:53 AM 39.9 °F - 37.9 °F 93% 30.01 in 8.0 mi Calm Calm - N/A   Clear
6:53 AM 39.9 °F 35.8 °F 37.0 °F 89% 30.04 in 10.0 mi West 5.8 mph - N/A   Clear
7:53 AM 39.9 °F 36.7 °F 37.0 °F 89% 30.09 in 10.0 mi SSW 4.6 mph - N/A   Clear
8:53 AM 46.0 °F 43.1 °F 39.9 °F 79% 30.14 in 10.0 mi WSW 5.8 mph - N/A   Clear
9:01 AM 48.0 °F - 39.9 °F 74% 30.16 in 10.0 mi WSW 3.5 mph - N/A   Partly Cloudy
9:53 AM 55.9 °F - 36.0 °F 47% 30.17 in 10.0 mi West 8.1 mph - N/A   Clear
10:53 AM 62.1 °F - 28.0 °F 28% 30.18 in 10.0 mi WNW 8.1 mph - N/A   Clear
11:53 AM 66.9 °F - 28.0 °F 23% 30.16 in 10.0 mi WNW 5.8 mph - N/A   Clear
12:53 PM 71.1 °F - 24.1 °F 17% 30.12 in 10.0 mi Calm Calm - N/A   Clear
1:53 PM 73.9 °F - 21.0 °F 14% 30.08 in 10.0 mi NNW 9.2 mph - N/A   Clear
2:53 PM 75.9 °F - 21.9 °F 13% 30.05 in 10.0 mi North 9.2 mph - N/A   Clear
3:53 PM 77.0 °F - 21.0 °F 12% 30.03 in 10.0 mi NNE 9.2 mph - N/A   Clear
4:53 PM 77.0 °F - 21.0 °F 12% 30.02 in 10.0 mi Calm Calm - N/A   Clear
5:53 PM 73.9 °F - 21.9 °F 14% 30.03 in 10.0 mi SSE 3.5 mph - N/A   Clear
6:53 PM 66.9 °F - 24.1 °F 20% 30.04 in 10.0 mi SE 5.8 mph - N/A   Clear
7:53 PM 64.0 °F - 26.1 °F 24% 30.06 in 10.0 mi SE 4.6 mph - N/A   Clear
8:53 PM 60.1 °F - 28.0 °F 30% 30.09 in 10.0 mi ESE 5.8 mph - N/A   Clear
9:53 PM 57.0 °F - 28.0 °F 33% 30.09 in 10.0 mi East 5.8 mph - N/A   Clear
10:53 PM 54.0 °F - 28.9 °F 38% 30.09 in 10.0 mi ESE 4.6 mph - N/A   Clear
11:53 PM 50.0 °F - 30.0 °F 46% 30.07 in 10.0 mi East 6.9 mph - N/A   Clear